Cloud_Cover
100 100 100 100 100 100 100 100 100 100 100 100 100 100 100 100 100 99 82 90 100 100 72 65 70 93 95 96 98 97 92 98
100 100 100 100 100 100 100 100 100 100 100 100 100 100 100 100 100 100 100 100 86 70 82 82 59 100 100 100 98 100 94 54
100 100 70 16 99 100 100 100 100 100 100 100 100 100 100 100 100 100 100 100 100 86 91 86 98 100 100 100 100 98 100 99
96 99 60 91 100 100 100 100 100 100 100 100 100 100 100 100 100 100 100 100 100 100 67 93 96 100 98 100 100 96 98 88
19 55 19 2 22 7 24 100 100 100 100 100 100 100 100 100 100 100 100 100 100 100 98 89 100 100 100 100 100 100 100 97
0 5 96 12 0 0 4 88 100 100 100 100 100 100 100 100 100 100 100 100 100 100 100 100 100 94 100 100 89 100 100 84
0 0 4 7 0 0 6 78 100 100 100 100 100 100 100 100 100 100 100 100 100 100 100 100 100 100 100 100 100 100 100 100
2 2 3 5 0 1 16 44 99 100 100 100 100 100 100 100 100 100 100 100 100 100 100 100 100 100 100 100 100 97 100 100
46 5 23 5 4 0 15 38 78 100 100 100 100 100 100 100 100 100 100 100 100 100 100 100 100 100 100 100 100 100 100 100
5 5 3 0 0 2 2 19 86 100 100 100 100 100 100 100 100 100 100 100 100 100 100 100 100 100 100 100 100 100 100 100
43 5 3 4 47 14 69 86 100 100 100 100 100 100 100 100 100 100 100 100 100 100 100 100 100 100 100 100 100 100 100 100
92 69 99 100 30 91 100 100 100 100 100 100 100 100 100 100 100 100 100 100 100 100 100 100 100 100 100 100 99 100 99 100
94 100 100 100 100 65 100 100 100 100 100 100 100 100 100 100 100 100 100 100 100 100 100 100 100 100 100 100 100 100 100 100
100 100 100 100 100 100 100 100 100 100 100 100 100 100 100 100 100 100 100 100 100 100 100 100 100 100 100 100 100 100 100 100
100 100 100 100 100 100 100 100 100 100 100 100 100 100 100 100 100 100 100 100 100 100 100 100 100 100 100 100 100 100 100 100
100 100 100 100 100 100 100 100 100 100 100 100 100 100 100 100 100 100 100 100 100 100 100 100 100 100 100 100 100 100 100 100
100 100 100 100 100 100 100 100 100 100 100 100 100 100 100 100 100 100 100 100 100 100 100 100 100 100 100 100 100 100 100 100
100 100 100 100 100 100 100 100 100 100 100 100 100 100 100 100 100 100 100 100 100 100 100 100 100 100 100 100 100 100 100 100
96 100 100 100 100 100 100 100 100 100 100 100 100 100 100 100 100 100 100 100 100 100 100 100 100 100 100 100 100 100 100 100